sat.trackr.live / text

‹ back to catalog

GEESAT-3 08

NORAD 61018 · 2024-159H

PAYLOAD ACTIVE UNKNOWN

§ Identity

Operator
Country
PRC
Launch date
2024-09-05
Launch site
TAISC
Launch vehicle
Mass (kg)
RCS (m²)

External: N2YO · Heavens-Above · Gunter

§ Orbital elements

Epoch: 2026-05-25T03:47:55.093056Z

Period
97.03 min
Inclination
50.0041°
Eccentricity
0.0027865
Mean motion
14.84138479 rev/d
Perigee alt
596.8 km
Apogee alt
635.8 km
Semi-major
6,994.4 km
B*
1.6714e-4
RAAN
189.8848°
Arg perigee
3.9853°
Mean anomaly
356.1303°
Rev number
9,335

§ Raw data

GEESAT-3 081 61018U 24159H   26145.15827654  .00001186  00000+0  16714-3 0  99902 61018  50.0041 189.8848 0027865   3.9853 356.1303 14.84138479 93350

JSON: /api/v1/satellites/61018 · /tle

For live sub-satellite position, see the globe view (requires WebGL).

§ Visibility from observer

Set your observer location to see the next 7 days of passes ≥ 10°. The values pass through the URL so the page stays shareable.

No JS? Fill the form by hand. The geolocation button needs JavaScript.